| time (UTC) | temp F | wind direction | speed MPH | gust MPH | rain 1hr in | rain 24hr in | rain mn in | humidity % | barometer mb |
| 20260903100904 | 81 | 29 | 2.0 | 3.0 | 0.00 | 0.00 | 0.00 | 86 | 1014.0 |
| 20260903100359 | 81 | 348 | 2.0 | 4.0 | 0.00 | 0.00 | 0.00 | 87 | 1014.1 |
| 20260903095856 | 81 | 243 | 3.0 | 3.0 | 0.00 | 0.00 | 0.00 | 87 | 1014.1 |
| 20260903095351 | 81 | 309 | 0.0 | 4.0 | 0.00 | 0.00 | 0.00 | 87 | 1014.1 |
| 20260903094846 | 81 | 254 | 0.0 | 4.0 | 0.00 | 0.00 | 0.00 | 87 | 1014.2 |
| 20260903094345 | 81 | 222 | 0.0 | 3.0 | 0.00 | 0.00 | 0.00 | 86 | 1014.0 |
| 20260903093842 | 81 | 226 | 3.0 | 4.0 | 0.00 | 0.00 | 0.00 | 86 | 1014.1 |
| 20260903093337 | 81 | 206 | 3.0 | 5.0 | 0.00 | 0.00 | 0.00 | 86 | 1014.2 |
| 20260903092832 | 81 | 274 | 1.0 | 5.0 | 0.00 | 0.00 | 0.00 | 86 | 1014.1 |
| 20260903092326 | 81 | 175 | 0.0 | 3.0 | 0.00 | 0.00 | 0.00 | 86 | 1014.2 |
| 20260903091825 | 81 | 197 | 0.0 | 3.0 | 0.00 | 0.00 | 0.00 | 86 | 1014.1 |
| 20260903091319 | 81 | 341 | 0.0 | 4.0 | 0.00 | 0.00 | 0.00 | 87 | 1014.2 |
| 20260903090815 | 81 | 215 | 0.0 | 3.0 | 0.00 | 0.00 | 0.00 | 87 | 1014.1 |
| 20260903090315 | 81 | 298 | 1.0 | 3.0 | 0.00 | 0.00 | 0.00 | 87 | 1014.1 |
| 20260903085813 | 81 | 310 | 0.0 | 3.0 | 0.00 | 0.00 | 0.00 | 87 | 1014.0 |
| 20260903085307 | 81 | 168 | 1.0 | 3.0 | 0.00 | 0.00 | 0.00 | 87 | 1014.3 |
| 20260903084806 | 81 | 277 | 1.0 | 5.0 | 0.00 | 0.00 | 0.00 | 87 | 1014.1 |
| 20260903084300 | 81 | 261 | 0.0 | 3.0 | 0.00 | 0.00 | 0.00 | 87 | 1014.2 |
| 20260903083755 | 81 | 269 | 0.0 | 3.0 | 0.00 | 0.00 | 0.00 | 87 | 1014.3 |
| 20260903083250 | 81 | 205 | 3.0 | 4.0 | 0.00 | 0.00 | 0.00 | 86 | 1014.2 |
| 20260903082749 | 81 | 196 | 2.0 | 4.0 | 0.00 | 0.00 | 0.00 | 86 | 1014.4 |
| 20260903082245 | 81 | 284 | 1.0 | 3.0 | 0.00 | 0.00 | 0.00 | 86 | 1014.4 |
| 20260903081745 | 81 | 289 | 3.0 | 4.0 | 0.00 | 0.00 | 0.00 | 86 | 1014.3 |
| 20260903081241 | 81 | 333 | 2.0 | 5.0 | 0.00 | 0.00 | 0.00 | 86 | 1014.5 |
| 20260903080737 | 81 | 222 | 0.0 | 5.0 | 0.00 | 0.00 | 0.00 | 86 | 1014.4 |
| 20260903080234 | 81 | 198 | 1.0 | 5.0 | 0.00 | 0.00 | 0.00 | 86 | 1014.1 |
| 20260903075734 | 81 | 196 | 3.0 | 6.0 | 0.00 | 0.00 | 0.00 | 86 | 1014.4 |
| 20260903075229 | 81 | 323 | 0.0 | 2.0 | 0.00 | 0.00 | 0.00 | 86 | 1014.3 |
| 20260903074728 | 81 | 289 | 2.0 | 2.0 | 0.00 | 0.00 | 0.00 | 85 | 1014.5 |
| 20260903074223 | 81 | 196 | 0.0 | 3.0 | 0.00 | 0.00 | 0.00 | 86 | 1014.5 |
| 20260903073718 | 81 | 313 | 1.0 | 2.0 | 0.00 | 0.00 | 0.00 | 85 | 1014.5 |
| 20260903073214 | 81 | 296 | 1.0 | 2.0 | 0.00 | 0.00 | 0.00 | 85 | 1014.5 |
| 20260903072709 | 81 | 301 | 1.0 | 3.0 | 0.00 | 0.00 | 0.00 | 85 | 1014.7 |
| 20260903072206 | 81 | 302 | 1.0 | 3.0 | 0.00 | 0.00 | 0.00 | 85 | 1014.5 |
| 20260903071702 | 81 | 282 | 0.0 | 3.0 | 0.00 | 0.00 | 0.00 | 85 | 1014.6 |
| 20260903071157 | 81 | 178 | 1.0 | 4.0 | 0.00 | 0.00 | 0.00 | 84 | 1014.7 |
| 20260903070656 | 81 | 268 | 1.0 | 3.0 | 0.00 | 0.00 | 0.00 | 84 | 1014.6 |
| 20260903070153 | 80 | 274 | 1.0 | 3.0 | 0.00 | 0.00 | 0.00 | 84 | 1014.5 |
| 20260903065647 | 81 | 180 | 1.0 | 3.0 | 0.00 | 0.00 | 0.00 | 84 | 1014.6 |
| 20260903065141 | 81 | 296 | 2.0 | 4.0 | 0.00 | 0.00 | 0.00 | 83 | 1014.9 |
| 20260903064640 | 81 | 230 | 3.0 | 4.0 | 0.00 | 0.00 | 0.00 | 83 | 1014.7 |
| 20260903064136 | 81 | 245 | 1.0 | 3.0 | 0.00 | 0.00 | 0.00 | 83 | 1014.6 |
| 20260903063632 | 81 | 278 | 1.0 | 3.0 | 0.00 | 0.00 | 0.00 | 82 | 1014.7 |
| 20260903063132 | 81 | 203 | 1.0 | 5.0 | 0.00 | 0.00 | 0.00 | 82 | 1014.6 |
| 20260903062628 | 81 | 201 | 2.0 | 3.0 | 0.00 | 0.00 | 0.00 | 82 | 1014.3 |
| 20260903062123 | 81 | 235 | 0.0 | 4.0 | 0.00 | 0.00 | 0.00 | 81 | 1014.3 |
| 20260903061618 | 81 | 285 | 0.0 | 2.0 | 0.00 | 0.00 | 0.00 | 81 | 1015.0 |
| 20260903061118 | 81 | 229 | 0.0 | 2.0 | 0.00 | 0.00 | 0.00 | 81 | 1014.7 |
| 20260903060613 | 82 | 205 | 0.0 | 2.0 | 0.00 | 0.00 | 0.00 | 80 | 1014.9 |
| 20260903060108 | 82 | 280 | 2.0 | 2.0 | 0.00 | 0.00 | 0.00 | 80 | 1014.6 |
| 20260903055606 | 82 | 273 | 1.0 | 3.0 | 0.00 | 0.00 | 0.00 | 80 | 1014.5 |
| 20260903055104 | 82 | 196 | 1.0 | 3.0 | 0.00 | 0.00 | 0.00 | 79 | 1014.9 |
| 20260903054559 | 82 | 179 | 2.0 | 5.0 | 0.00 | 0.00 | 0.00 | 79 | 1014.9 |
| 20260903054055 | 82 | 12 | 0.0 | 3.0 | 0.00 | 0.00 | 0.00 | 78 | 1014.7 |
| 20260903053550 | 82 | 175 | 1.0 | 3.0 | 0.00 | 0.00 | 0.00 | 77 | 1015.0 |
| 20260903053047 | 83 | 149 | 2.0 | 5.0 | 0.00 | 0.00 | 0.00 | 76 | 1015.0 |
| 20260903052542 | 83 | 117 | 3.0 | 5.0 | 0.00 | 0.00 | 0.00 | 75 | 1015.1 |
| 20260903052038 | 83 | 140 | 3.0 | 6.0 | 0.00 | 0.00 | 0.00 | 74 | 1015.2 |
| 20260903051537 | 83 | 182 | 0.0 | 5.0 | 0.00 | 0.00 | 0.00 | 73 | 1014.9 |
| 20260903051033 | 84 | 200 | 1.0 | 3.0 | 0.00 | 0.00 | 0.00 | 72 | 1014.6 |
| 20260903050532 | 84 | 142 | 2.0 | 11.0 | 0.00 | 0.00 | 0.00 | 71 | 1014.4 |
| 20260903050028 | 84 | 144 | 4.0 | 5.0 | 0.00 | 0.00 | 0.00 | 70 | 1014.6 |
| 20260903045527 | 84 | 240 | 2.0 | 3.0 | 0.00 | 0.00 | 0.00 | 69 | 1014.7 |
| 20260903045024 | 84 | 153 | 3.0 | 4.0 | 0.00 | 0.00 | 0.00 | 67 | 1014.3 |
| 20260903044520 | 84 | 294 | 2.0 | 3.0 | 0.00 | 0.00 | 0.00 | 67 | 1014.6 |
| 20260903044015 | 85 | 130 | 0.0 | 5.0 | 0.00 | 0.00 | 0.00 | 65 | 1014.3 |
| 20260903043511 | 85 | 139 | 1.0 | 5.0 | 0.00 | 0.00 | 0.00 | 64 | 1014.6 |
| 20260903043010 | 85 | 110 | 3.0 | 5.0 | 0.00 | 0.00 | 0.00 | 63 | 1014.3 |
| 20260903042504 | 86 | 138 | 3.0 | 8.0 | 0.00 | 0.00 | 0.00 | 62 | 1014.2 |
| 20260903042000 | 86 | 134 | 0.0 | 5.0 | 0.00 | 0.00 | 0.00 | 61 | 1014.1 |
| 20260903041457 | 87 | 89 | 0.0 | 9.0 | 0.00 | 0.00 | 0.00 | 59 | 1014.2 |
| 20260903040952 | 87 | 188 | 2.0 | 6.0 | 0.00 | 0.00 | 0.00 | 57 | 1013.9 |
| 20260903040450 | 88 | 168 | 3.0 | 7.0 | 0.00 | 0.00 | 0.00 | 56 | 1013.9 |
| 20260903035948 | 88 | 303 | 1.0 | 6.0 | 0.00 | 0.00 | 0.00 | 56 | 1014.0 |
| 20260903035442 | 88 | 235 | 2.0 | 7.0 | 0.00 | 0.00 | 0.00 | 54 | 1014.2 |
| 20260903034937 | 89 | 108 | 1.0 | 7.0 | 0.00 | 0.00 | 0.00 | 54 | 1013.9 |
| 20260903034432 | 89 | 133 | 6.0 | 8.0 | 0.00 | 0.00 | 0.00 | 56 | 1013.8 |
| 20260903033927 | 89 | 112 | 9.0 | 10.0 | 0.00 | 0.00 | 0.00 | 58 | 1013.8 |
| 20260903033423 | 89 | 149 | 5.0 | 9.0 | 0.00 | 0.00 | 0.00 | 59 | 1013.9 |
| 20260903032918 | 90 | 145 | 5.0 | 5.0 | 0.00 | 0.00 | 0.00 | 59 | 1013.6 |
| 20260903032413 | 90 | 98 | 3.0 | 4.0 | 0.00 | 0.00 | 0.00 | 59 | 1013.6 |
| 20260903031908 | 90 | 115 | 1.0 | 4.0 | 0.00 | 0.00 | 0.00 | 58 | 1013.6 |
| 20260903031407 | 90 | 123 | 2.0 | 4.0 | 0.00 | 0.00 | 0.00 | 57 | 1013.5 |
| 20260903030903 | 90 | 146 | 0.0 | 2.0 | 0.00 | 0.00 | 0.00 | 55 | 1013.3 |
| 20260903030359 | 91 | 174 | 0.0 | 4.0 | 0.00 | 0.00 | 0.00 | 55 | 1013.0 |
| 20260903025854 | 91 | 115 | 3.0 | 4.0 | 0.00 | 0.00 | 0.00 | 54 | 1012.9 |
| 20260903025349 | 91 | 161 | 1.0 | 5.0 | 0.00 | 0.00 | 0.00 | 52 | 1012.9 |
| 20260903024844 | 92 | 124 | 3.0 | 9.0 | 0.00 | 0.00 | 0.00 | 50 | 1012.9 |
| 20260903024338 | 91 | 141 | 0.0 | 0.0 | 0.00 | 0.00 | 0.00 | 51 | 1012.6 |
| 20260903023833 | 91 | 309 | 0.0 | 0.0 | 0.00 | 0.00 | 0.00 | 51 | 1012.5 |
| 20260903023329 | 91 | 309 | 0.0 | 0.0 | 0.00 | 0.00 | 0.00 | 51 | 1012.5 |
| 20260903022824 | 91 | 269 | 0.0 | 0.0 | 0.00 | 0.00 | 0.00 | 51 | 1012.5 |
| 20260903022323 | 90 | 309 | 0.0 | 0.0 | 0.00 | 0.00 | 0.00 | 51 | 1012.2 |
| 20260903021817 | 91 | 309 | 0.0 | 1.0 | 0.00 | 0.00 | 0.00 | 50 | 1012.2 |
| 20260903021313 | 91 | 315 | 0.0 | 0.0 | 0.00 | 0.00 | 0.00 | 50 | 1012.2 |
| 20260903020812 | 92 | 284 | 0.0 | 0.0 | 0.00 | 0.00 | 0.00 | 49 | 1012.1 |
| 20260903020307 | 92 | 186 | 0.0 | 1.0 | 0.00 | 0.00 | 0.00 | 49 | 1011.7 |
| 20260903015803 | 92 | 76 | 0.0 | 2.0 | 0.00 | 0.00 | 0.00 | 49 | 1012.1 |
| 20260903015258 | 93 | 130 | 0.0 | 2.0 | 0.00 | 0.00 | 0.00 | 49 | 1011.8 |
| 20260903014753 | 93 | 133 | 0.0 | 1.0 | 0.00 | 0.00 | 0.00 | 49 | 1011.8 |
| 20260903014253 | 93 | 129 | 0.0 | 1.0 | 0.00 | 0.00 | 0.00 | 49 | 1011.8 |
| 20260903013748 | 93 | 297 | 0.0 | 2.0 | 0.00 | 0.00 | 0.00 | 48 | 1011.7 |
| 20260903013247 | 93 | 226 | 1.0 | 1.0 | 0.00 | 0.00 | 0.00 | 48 | 1011.8 |
| 20260903012745 | 93 | 153 | 0.0 | 2.0 | 0.00 | 0.00 | 0.00 | 48 | 1011.8 |
| 20260903012240 | 93 | 337 | 0.0 | 3.0 | 0.00 | 0.00 | 0.00 | 48 | 1011.8 |
| 20260903011739 | 93 | 327 | 2.0 | 3.0 | 0.00 | 0.00 | 0.00 | 48 | 1011.6 |
| 20260903011233 | 94 | 298 | 2.0 | 4.0 | 0.00 | 0.00 | 0.00 | 47 | 1011.6 |
| 20260903010730 | 94 | 315 | 1.0 | 2.0 | 0.00 | 0.00 | 0.00 | 46 | 1011.5 |
| 20260903010229 | 94 | 302 | 3.0 | 3.0 | 0.00 | 0.00 | 0.00 | 46 | 1011.5 |
| 20260903005728 | 94 | 250 | 1.0 | 2.0 | 0.00 | 0.00 | 0.00 | 45 | 1011.7 |
| 20260903005223 | 95 | 306 | 0.0 | 3.0 | 0.00 | 0.00 | 0.00 | 45 | 1011.7 |
| 20260903004719 | 95 | 215 | 0.0 | 3.0 | 0.00 | 0.00 | 0.00 | 44 | 1011.5 |
| 20260903004214 | 96 | 315 | 4.0 | 4.0 | 0.00 | 0.00 | 0.00 | 42 | 1011.5 |
| 20260903003710 | 97 | 273 | 1.0 | 2.0 | 0.00 | 0.00 | 0.00 | 40 | 1011.4 |
| 20260903003205 | 97 | 277 | 2.0 | 3.0 | 0.00 | 0.00 | 0.00 | 38 | 1011.5 |
| 20260903002700 | 98 | 281 | 2.0 | 3.0 | 0.00 | 0.00 | 0.00 | 38 | 1011.3 |
| 20260903002154 | 98 | 278 | 2.0 | 3.0 | 0.00 | 0.00 | 0.00 | 38 | 1011.3 |
| 20260903001649 | 99 | 259 | 3.0 | 3.0 | 0.00 | 0.00 | 0.00 | 36 | 1011.4 |
| 20260903001143 | 100 | 275 | 2.0 | 3.0 | 0.00 | 0.00 | 0.00 | 36 | 1011.4 |
| 20260903000639 | 101 | 262 | 3.0 | 5.0 | 0.00 | 0.00 | 0.00 | 35 | 1011.8 |
| 20260903000138 | 103 | 269 | 2.0 | 3.0 | 0.00 | 0.00 | 0.00 | 34 | 1011.4 |
| 20260902235637 | 103 | 267 | 2.0 | 4.0 | 0.00 | 0.00 | 0.00 | 32 | 1011.6 |
| 20260902235132 | 104 | 277 | 2.0 | 5.0 | 0.00 | 0.00 | 0.00 | 32 | 1011.6 |
| 20260902234626 | 103 | 247 | 3.0 | 3.0 | 0.00 | 0.00 | 0.00 | 33 | 1011.4 |
| 20260902234124 | 102 | 269 | 2.0 | 5.0 | 0.00 | 0.00 | 0.00 | 33 | 1011.5 |
| 20260902233620 | 102 | 269 | 2.0 | 5.0 | 0.00 | 0.00 | 0.00 | 32 | 1011.7 |
| 20260902233114 | 102 | 328 | 0.0 | 4.0 | 0.00 | 0.00 | 0.00 | 33 | 1011.6 |
| 20260902232614 | 102 | 274 | 3.0 | 4.0 | 0.00 | 0.00 | 0.00 | 33 | 1011.6 |
| 20260902232108 | 104 | 275 | 2.0 | 4.0 | 0.00 | 0.00 | 0.00 | 33 | 1011.6 |
| 20260902231608 | 104 | 272 | 2.0 | 5.0 | 0.00 | 0.00 | 0.00 | 32 | 1011.6 |
| 20260902231107 | 105 | 271 | 2.0 | 4.0 | 0.00 | 0.00 | 0.00 | 32 | 1011.6 |
| 20260902230602 | 104 | 272 | 2.0 | 4.0 | 0.00 | 0.00 | 0.00 | 33 | 1011.8 |
| 20260902230101 | 104 | 281 | 2.0 | 3.0 | 0.00 | 0.00 | 0.00 | 32 | 1011.6 |
| 20260902225556 | 105 | 257 | 4.0 | 7.0 | 0.00 | 0.00 | 0.00 | 33 | 1011.6 |
| 20260902225056 | 104 | 278 | 3.0 | 3.0 | 0.00 | 0.00 | 0.00 | 33 | 1011.7 |
| 20260902224554 | 104 | 227 | 0.0 | 3.0 | 0.00 | 0.00 | 0.00 | 33 | 1011.7 |
| 20260902224050 | 104 | 331 | 3.0 | 4.0 | 0.00 | 0.00 | 0.00 | 33 | 1011.7 |
| 20260902223547 | 105 | 277 | 4.0 | 4.0 | 0.00 | 0.00 | 0.00 | 32 | 1011.8 |
| 20260902223046 | 104 | 283 | 2.0 | 3.0 | 0.00 | 0.00 | 0.00 | 34 | 1011.6 |
| 20260902222544 | 102 | 278 | 3.0 | 3.0 | 0.00 | 0.00 | 0.00 | 35 | 1011.6 |
| 20260902222044 | 105 | 259 | 2.0 | 3.0 | 0.00 | 0.00 | 0.00 | 33 | 1011.5 |
| 20260902221538 | 104 | 241 | 5.0 | 6.0 | 0.00 | 0.00 | 0.00 | 33 | 1011.7 |
| 20260902221033 | 103 | 250 | 3.0 | 5.0 | 0.00 | 0.00 | 0.00 | 34 | 1011.8 |
| 20260902220528 | 102 | 252 | 0.0 | 2.0 | 0.00 | 0.00 | 0.00 | 35 | 1011.8 |
| 20260902220023 | 102 | 298 | 3.0 | 6.0 | 0.00 | 0.00 | 0.00 | 34 | 1011.5 |
| 20260902215519 | 105 | 247 | 2.0 | 5.0 | 0.00 | 0.00 | 0.00 | 32 | 1011.6 |
| 20260902215015 | 104 | 276 | 2.0 | 4.0 | 0.00 | 0.00 | 0.00 | 33 | 1011.9 |
| 20260902214514 | 103 | 287 | 1.0 | 5.0 | 0.00 | 0.00 | 0.00 | 34 | 1011.8 |
| 20260902214013 | 102 | 179 | 2.0 | 4.0 | 0.00 | 0.00 | 0.00 | 35 | 1011.8 |
| 20260902213509 | 102 | 201 | 0.0 | 4.0 | 0.00 | 0.00 | 0.00 | 35 | 1011.9 |
| 20260902213008 | 103 | 280 | 0.0 | 4.0 | 0.00 | 0.00 | 0.00 | 34 | 1011.9 |
| 20260902212504 | 101 | 254 | 3.0 | 3.0 | 0.00 | 0.00 | 0.00 | 35 | 1012.1 |
| 20260902212000 | 101 | 107 | 2.0 | 5.0 | 0.00 | 0.00 | 0.00 | 36 | 1012.1 |
| 20260902211455 | 104 | 268 | 4.0 | 4.0 | 0.00 | 0.00 | 0.00 | 34 | 1012.1 |
| 20260902210950 | 102 | 260 | 3.0 | 6.0 | 0.00 | 0.00 | 0.00 | 35 | 1012.2 |
| 20260902210445 | 103 | 304 | 1.0 | 4.0 | 0.00 | 0.00 | 0.00 | 36 | 1012.2 |
| 20260902205943 | 103 | 271 | 3.0 | 8.0 | 0.00 | 0.00 | 0.00 | 36 | 1012.5 |
| 20260902205439 | 103 | 304 | 3.0 | 4.0 | 0.00 | 0.00 | 0.00 | 35 | 1012.4 |
| 20260902204934 | 103 | 242 | 3.0 | 7.0 | 0.00 | 0.00 | 0.00 | 36 | 1012.4 |
| 20260902204434 | 102 | 252 | 1.0 | 4.0 | 0.00 | 0.00 | 0.00 | 37 | 1012.3 |
| 20260902203929 | 102 | 227 | 5.0 | 5.0 | 0.00 | 0.00 | 0.00 | 37 | 1012.4 |
| 20260902203425 | 101 | 273 | 3.0 | 5.0 | 0.00 | 0.00 | 0.00 | 38 | 1012.7 |
| 20260902202924 | 101 | 248 | 6.0 | 6.0 | 0.00 | 0.00 | 0.00 | 38 | 1012.6 |
| 20260902202420 | 102 | 327 | 3.0 | 5.0 | 0.00 | 0.00 | 0.00 | 38 | 1012.9 |
| 20260902201916 | 101 | 262 | 3.0 | 5.0 | 0.00 | 0.00 | 0.00 | 38 | 1012.7 |
| 20260902201411 | 100 | 304 | 3.0 | 5.0 | 0.00 | 0.00 | 0.00 | 38 | 1012.9 |
| 20260902200906 | 102 | 293 | 3.0 | 5.0 | 0.00 | 0.00 | 0.00 | 38 | 1013.1 |
| 20260902200401 | 102 | 264 | 5.0 | 6.0 | 0.00 | 0.00 | 0.00 | 38 | 1012.9 |
| 20260902195856 | 101 | 277 | 3.0 | 7.0 | 0.00 | 0.00 | 0.00 | 40 | 1013.4 |
| 20260902195355 | 99 | 221 | 2.0 | 3.0 | 0.00 | 0.00 | 0.00 | 40 | 1013.2 |
| 20260902194850 | 100 | 329 | 2.0 | 3.0 | 0.00 | 0.00 | 0.00 | 39 | 1013.5 |
| 20260902194345 | 101 | 296 | 3.0 | 5.0 | 0.00 | 0.00 | 0.00 | 40 | 1013.4 |
| 20260902193840 | 100 | 105 | 2.0 | 4.0 | 0.00 | 0.00 | 0.00 | 40 | 1013.6 |
| 20260902193336 | 99 | 306 | 0.0 | 3.0 | 0.00 | 0.00 | 0.00 | 43 | 1013.7 |
| 20260902192834 | 100 | 283 | 3.0 | 4.0 | 0.00 | 0.00 | 0.00 | 43 | 1013.8 |
| 20260902192328 | 100 | 197 | 1.0 | 4.0 | 0.00 | 0.00 | 0.00 | 40 | 1013.7 |
| 20260902191828 | 99 | 228 | 2.0 | 3.0 | 0.00 | 0.00 | 0.00 | 42 | 1014.0 |
| 20260902191323 | 99 | 262 | 0.0 | 4.0 | 0.00 | 0.00 | 0.00 | 41 | 1014.0 |
| 20260902190819 | 99 | 133 | 3.0 | 9.0 | 0.00 | 0.00 | 0.00 | 42 | 1014.2 |
| 20260902190318 | 100 | 244 | 2.0 | 6.0 | 0.00 | 0.00 | 0.00 | 41 | 1014.1 |
| 20260902185814 | 100 | 345 | 0.0 | 5.0 | 0.00 | 0.00 | 0.00 | 42 | 1014.3 |
| 20260902185309 | 100 | 247 | 4.0 | 5.0 | 0.00 | 0.00 | 0.00 | 42 | 1014.2 |
| 20260902184805 | 99 | 279 | 3.0 | 8.0 | 0.00 | 0.00 | 0.00 | 43 | 1014.5 |
| 20260902184300 | 99 | 302 | 2.0 | 9.0 | 0.00 | 0.00 | 0.00 | 42 | 1014.5 |
| 20260902183756 | 100 | 316 | 2.0 | 3.0 | 0.00 | 0.00 | 0.00 | 42 | 1014.5 |
| 20260902183252 | 99 | 302 | 3.0 | 4.0 | 0.00 | 0.00 | 0.00 | 44 | 1014.7 |
| 20260902182748 | 99 | 256 | 4.0 | 4.0 | 0.00 | 0.00 | 0.00 | 42 | 1014.7 |
| 20260902182244 | 98 | 156 | 2.0 | 4.0 | 0.00 | 0.00 | 0.00 | 45 | 1015.1 |
| 20260902181740 | 98 | 231 | 2.0 | 5.0 | 0.00 | 0.00 | 0.00 | 44 | 1015.0 |
| 20260902181240 | 98 | 217 | 1.0 | 5.0 | 0.00 | 0.00 | 0.00 | 43 | 1015.2 |
| 20260902180735 | 98 | 245 | 3.0 | 5.0 | 0.00 | 0.00 | 0.00 | 45 | 1015.2 |
| 20260902180230 | 98 | 241 | 3.0 | 3.0 | 0.00 | 0.00 | 0.00 | 45 | 1015.3 |
| 20260902175725 | 98 | 262 | 4.0 | 5.0 | 0.00 | 0.00 | 0.00 | 46 | 1015.6 |
| 20260902175221 | 97 | 243 | 2.0 | 4.0 | 0.00 | 0.00 | 0.00 | 47 | 1015.7 |
| 20260902174717 | 98 | 242 | 3.0 | 3.0 | 0.00 | 0.00 | 0.00 | 47 | 1015.5 |
| 20260902174213 | 97 | 252 | 2.0 | 8.0 | 0.00 | 0.00 | 0.00 | 47 | 1015.8 |
| 20260902173708 | 97 | 295 | 3.0 | 5.0 | 0.00 | 0.00 | 0.00 | 51 | 1015.8 |
| 20260902173202 | 97 | 224 | 2.0 | 4.0 | 0.00 | 0.00 | 0.00 | 47 | 1016.1 |
| 20260902172657 | 96 | 234 | 1.0 | 6.0 | 0.00 | 0.00 | 0.00 | 49 | 1016.0 |
| 20260902172156 | 97 | 254 | 0.0 | 4.0 | 0.00 | 0.00 | 0.00 | 51 | 1016.2 |
| 20260902171651 | 96 | 215 | 1.0 | 4.0 | 0.00 | 0.00 | 0.00 | 51 | 1016.3 |
| 20260902171147 | 96 | 184 | 0.0 | 6.0 | 0.00 | 0.00 | 0.00 | 50 | 1016.1 |
| 20260902170643 | 96 | 262 | 2.0 | 4.0 | 0.00 | 0.00 | 0.00 | 51 | 1016.2 |
| 20260902170138 | 96 | 272 | 2.0 | 4.0 | 0.00 | 0.00 | 0.00 | 52 | 1016.1 |
| 20260902165632 | 95 | 249 | 4.0 | 6.0 | 0.00 | 0.00 | 0.00 | 53 | 1016.3 |
| 20260902165127 | 95 | 268 | 2.0 | 5.0 | 0.00 | 0.00 | 0.00 | 55 | 1016.4 |
| 20260902164622 | 94 | 269 | 2.0 | 6.0 | 0.00 | 0.00 | 0.00 | 55 | 1016.3 |
| 20260902164121 | 95 | 228 | 4.0 | 6.0 | 0.00 | 0.00 | 0.00 | 51 | 1016.5 |
| 20260902163616 | 94 | 274 | 2.0 | 5.0 | 0.00 | 0.00 | 0.00 | 56 | 1016.5 |
| 20260902163115 | 94 | 311 | 3.0 | 5.0 | 0.00 | 0.00 | 0.00 | 57 | 1016.5 |
| 20260902162614 | 93 | 261 | 5.0 | 6.0 | 0.00 | 0.00 | 0.00 | 57 | 1016.6 |
| 20260902162109 | 94 | 244 | 2.0 | 6.0 | 0.00 | 0.00 | 0.00 | 56 | 1016.7 |
| 20260902161604 | 93 | 343 | 0.0 | 4.0 | 0.00 | 0.00 | 0.00 | 61 | 1016.6 |
| 20260902161101 | 93 | 240 | 6.0 | 6.0 | 0.00 | 0.00 | 0.00 | 57 | 1016.6 |
| 20260902160556 | 92 | 259 | 3.0 | 7.0 | 0.00 | 0.00 | 0.00 | 58 | 1016.7 |
| 20260902160051 | 93 | 293 | 1.0 | 3.0 | 0.00 | 0.00 | 0.00 | 62 | 1016.6 |
| 20260902155544 | 92 | 298 | 3.0 | 4.0 | 0.00 | 0.00 | 0.00 | 63 | 1016.9 |
| 20260902155043 | 93 | 261 | 3.0 | 4.0 | 0.00 | 0.00 | 0.00 | 60 | 1016.5 |
| 20260902154538 | 92 | 271 | 0.0 | 4.0 | 0.00 | 0.00 | 0.00 | 63 | 1016.6 |
| 20260902154033 | 90 | 185 | 2.0 | 3.0 | 0.00 | 0.00 | 0.00 | 64 | 1016.8 |
| 20260902153531 | 90 | 277 | 2.0 | 7.0 | 0.00 | 0.00 | 0.00 | 65 | 1016.7 |
| 20260902153027 | 90 | 258 | 3.0 | 6.0 | 0.00 | 0.00 | 0.00 | 65 | 1016.7 |
| 20260902152524 | 90 | 156 | 0.0 | 4.0 | 0.00 | 0.00 | 0.00 | 66 | 1016.6 |
| 20260902152019 | 90 | 248 | 0.0 | 5.0 | 0.00 | 0.00 | 0.00 | 66 | 1016.7 |
| 20260902151514 | 89 | 278 | 4.0 | 4.0 | 0.00 | 0.00 | 0.00 | 67 | 1016.8 |
| 20260902151014 | 89 | 250 | 0.0 | 5.0 | 0.00 | 0.00 | 0.00 | 70 | 1017.0 |
| 20260902150509 | 89 | 173 | 4.0 | 5.0 | 0.00 | 0.00 | 0.00 | 69 | 1016.8 |
| 20260902150004 | 89 | 349 | 3.0 | 3.0 | 0.00 | 0.00 | 0.00 | 69 | 1016.8 |
| 20260902145459 | 89 | 266 | 2.0 | 4.0 | 0.00 | 0.00 | 0.00 | 70 | 1016.7 |
| 20260902144953 | 87 | 252 | 1.0 | 4.0 | 0.00 | 0.00 | 0.00 | 71 | 1016.8 |
| 20260902144450 | 87 | 9 | 0.0 | 5.0 | 0.00 | 0.00 | 0.00 | 73 | 1016.7 |
| 20260902143944 | 87 | 84 | 0.0 | 5.0 | 0.00 | 0.00 | 0.00 | 73 | 1016.8 |
| 20260902143440 | 87 | 243 | 2.0 | 6.0 | 0.00 | 0.00 | 0.00 | 74 | 1016.9 |
| 20260902142935 | 86 | 156 | 0.0 | 4.0 | 0.00 | 0.00 | 0.00 | 74 | 1016.9 |
| 20260902142431 | 85 | 204 | 2.0 | 7.0 | 0.00 | 0.00 | 0.00 | 77 | 1016.8 |
| 20260902141926 | 86 | 254 | 0.0 | 4.0 | 0.00 | 0.00 | 0.00 | 76 | 1016.7 |
| 20260902141421 | 85 | 261 | 3.0 | 4.0 | 0.00 | 0.00 | 0.00 | 77 | 1016.9 |
| 20260902140920 | 85 | 242 | 4.0 | 6.0 | 0.00 | 0.00 | 0.00 | 77 | 1016.9 |
| 20260902140416 | 84 | 255 | 1.0 | 3.0 | 0.00 | 0.00 | 0.00 | 79 | 1016.8 |
| 20260902135915 | 84 | 251 | 3.0 | 4.0 | 0.00 | 0.00 | 0.00 | 80 | 1016.9 |
| 20260902135412 | 82 | 245 | 2.0 | 6.0 | 0.00 | 0.00 | 0.00 | 82 | 1016.7 |
| 20260902134910 | 83 | 251 | 2.0 | 4.0 | 0.00 | 0.00 | 0.00 | 81 | 1016.6 |
| 20260902134407 | 83 | 190 | 3.0 | 6.0 | 0.00 | 0.00 | 0.00 | 82 | 1016.6 |
| 20260902133901 | 83 | 275 | 3.0 | 5.0 | 0.00 | 0.00 | 0.00 | 81 | 1016.6 |
| 20260902133401 | 83 | 255 | 1.0 | 4.0 | 0.00 | 0.00 | 0.00 | 81 | 1016.7 |
| 20260902132856 | 82 | 277 | 2.0 | 4.0 | 0.00 | 0.00 | 0.00 | 82 | 1016.7 |
| 20260902132351 | 82 | 324 | 1.0 | 3.0 | 0.00 | 0.00 | 0.00 | 83 | 1016.7 |
| 20260902131846 | 81 | 201 | 0.0 | 4.0 | 0.00 | 0.00 | 0.00 | 84 | 1016.5 |
| 20260902131343 | 81 | 228 | 2.0 | 3.0 | 0.00 | 0.00 | 0.00 | 85 | 1016.5 |
| 20260902130842 | 80 | 275 | 1.0 | 4.0 | 0.00 | 0.00 | 0.00 | 85 | 1016.4 |
| 20260902130338 | 80 | 273 | 2.0 | 3.0 | 0.00 | 0.00 | 0.00 | 86 | 1016.5 |
| 20260902125833 | 79 | 265 | 0.0 | 3.0 | 0.00 | 0.00 | 0.00 | 88 | 1016.2 |
| 20260902125329 | 78 | 210 | 3.0 | 3.0 | 0.00 | 0.00 | 0.00 | 89 | 1016.2 |
| 20260902124825 | 77 | 220 | 1.0 | 2.0 | 0.00 | 0.00 | 0.00 | 91 | 1016.2 |
| 20260902124321 | 77 | 299 | 0.0 | 2.0 | 0.00 | 0.00 | 0.00 | 92 | 1016.2 |
| 20260902123815 | 76 | 306 | 0.0 | 1.0 | 0.00 | 0.00 | 0.00 | 92 | 1016.0 |
| 20260902123312 | 76 | 284 | 0.0 | 1.0 | 0.00 | 0.00 | 0.00 | 92 | 1016.2 |
| 20260902122810 | 76 | 269 | 0.0 | 2.0 | 0.00 | 0.00 | 0.00 | 92 | 1015.9 |
| 20260902122306 | 76 | 235 | 0.0 | 1.0 | 0.00 | 0.00 | 0.00 | 92 | 1016.1 |
| 20260902121801 | 77 | 221 | 1.0 | 2.0 | 0.00 | 0.00 | 0.00 | 92 | 1016.2 |
| 20260902121256 | 77 | 272 | 0.0 | 2.0 | 0.00 | 0.00 | 0.00 | 91 | 1015.9 |
| 20260902120751 | 77 | 255 | 0.0 | 2.0 | 0.00 | 0.00 | 0.00 | 91 | 1016.2 |
| 20260902120247 | 77 | 242 | 1.0 | 3.0 | 0.00 | 0.00 | 0.00 | 91 | 1015.8 |
| 20260902115742 | 77 | 246 | 1.0 | 3.0 | 0.00 | 0.00 | 0.00 | 91 | 1015.9 |
| 20260902115238 | 77 | 238 | 0.0 | 3.0 | 0.00 | 0.00 | 0.00 | 90 | 1015.8 |
| 20260902114734 | 77 | 268 | 0.0 | 3.0 | 0.00 | 0.00 | 0.00 | 90 | 1016.0 |
| 20260902114230 | 77 | 198 | 1.0 | 3.0 | 0.00 | 0.00 | 0.00 | 90 | 1016.1 |
| 20260902113724 | 77 | 241 | 1.0 | 3.0 | 0.00 | 0.00 | 0.00 | 90 | 1016.0 |
| 20260902113219 | 77 | 250 | 1.0 | 3.0 | 0.00 | 0.00 | 0.00 | 89 | 1016.0 |
| 20260902112719 | 77 | 240 | 0.0 | 3.0 | 0.00 | 0.00 | 0.00 | 89 | 1015.9 |
| 20260902112216 | 77 | 273 | 2.0 | 2.0 | 0.00 | 0.00 | 0.00 | 89 | 1015.9 |
| 20260902111711 | 77 | 228 | 0.0 | 2.0 | 0.00 | 0.00 | 0.00 | 88 | 1015.8 |
| 20260902111207 | 77 | 210 | 1.0 | 2.0 | 0.00 | 0.00 | 0.00 | 88 | 1015.8 |
| 20260902110703 | 77 | 267 | 1.0 | 3.0 | 0.00 | 0.00 | 0.00 | 87 | 1015.8 |
| 20260902110158 | 77 | 243 | 1.0 | 2.0 | 0.00 | 0.00 | 0.00 | 87 | 1015.6 |
| 20260902105658 | 77 | 315 | 0.0 | 2.0 | 0.00 | 0.00 | 0.00 | 87 | 1015.6 |
| 20260902105154 | 77 | 225 | 1.0 | 2.0 | 0.00 | 0.00 | 0.00 | 87 | 1015.5 |
| 20260902104649 | 78 | 256 | 1.0 | 3.0 | 0.00 | 0.00 | 0.00 | 86 | 1015.4 |
| 20260902104144 | 78 | 237 | 3.0 | 4.0 | 0.00 | 0.00 | 0.00 | 86 | 1015.7 |
| 20260902103643 | 77 | 257 | 2.0 | 3.0 | 0.00 | 0.00 | 0.00 | 86 | 1015.5 |
| 20260902103138 | 78 | 234 | 2.0 | 3.0 | 0.00 | 0.00 | 0.00 | 85 | 1015.6 |
| 20260902102635 | 78 | 233 | 2.0 | 3.0 | 0.00 | 0.00 | 0.00 | 85 | 1015.5 |
| 20260902102132 | 78 | 251 | 2.0 | 2.0 | 0.00 | 0.00 | 0.00 | 84 | 1015.3 |
| 20260902101627 | 78 | 277 | 1.0 | 1.0 | 0.00 | 0.00 | 0.00 | 84 | 1015.6 |
| 20260902101126 | 78 | 293 | 0.0 | 3.0 | 0.00 | 0.00 | 0.00 | 83 | 1015.6 |